Moab, UT

11:01 PM MDT on October 22, 2019 (GMT -0600)
Canyonlands

Weather History for KCNY - August, 2019

Change the Weather History Date:

Thursday, August 22, 2019

  Actual Average Record
Temperature  
Mean Temperature 85 °F 76 °F  
Max Temperature 96 °F 91 °F 105 °F (1991)
Min Temperature 73 °F 60 °F 47 °F (1974)
Degree Days  
Heating Degree Days 0 0  
Month to date heating degree days 0 0  
Since 1 June heating degree days 23 17  
Since 1 July heating degree days 0 0  
Cooling Degree Days 20 11  
Month to date cooling degree days 351 290  
Year to date cooling degree days 1124 1083  
Since 1 June cooling degree days 1109 1019  
Growing Degree Days 34 (Base 50)    
Moisture  
Dew Point 28 °F    
Average Humidity 16    
Maximum Humidity 27    
Minimum Humidity 5    
Precipitation  
Precipitation 0.00 in 0.02 in 0.53 in (1958)
Month to date precipitation 0.02 0.58  
Year to date precipitation 6.17 5.12  
Sea Level Pressure  
Sea Level Pressure 29.66 in    
Wind  
Wind Speed 9 mph (South)    
Max Wind Speed 23 mph    
Max Gust Speed 33 mph    
Visibility 10 miles    
Events      
T = Trace of Precipitation, MM = Missing Value Source: NWS Daily Summary

Daily Weather History Graph

Daily Weather History Graph

Search for Another Location

Airport or City:

Astronomy

Aug. 22, 2019 Rise Set
Actual Time 6:39 AM MDT 8:04 PM MDT
Civil Twilight 6:11 AM MDT 8:31 PM MDT
Nautical Twilight 5:37 AM MDT 9:05 PM MDT
Astronomical Twilight 5:02 AM MDT 9:40 PM MDT
Moon No Moon Rise 1:13 PM MDT (8/22)
Length of Visible Light 14h 20m
Length of Day
13h 25m
Waning Gibbous, 59% of the Moon is Illuminated
Aug 22
Waning Gibbous
Aug 23
Last Quarter
Aug 30
New
Sep 5
First Quarter
Sep 13
Full

Hourly Weather History & Observations

Time (MDT) Temp. Dew Point Humidity Pressure Visibility Wind Dir Wind Speed Gust Speed Precip Events Conditions
12:53 AM 81.0 °F 33.1 °F 18% 29.68 in 10.0 mi SE 4.6 mph - N/A   Clear
1:53 AM 82.9 °F 34.0 °F 17% 29.66 in 10.0 mi East 5.8 mph - N/A   Clear
2:53 AM 82.0 °F 34.0 °F 18% 29.66 in 10.0 mi ESE 11.5 mph - N/A   Clear
3:53 AM 81.0 °F 37.0 °F 21% 29.65 in 10.0 mi SE 12.7 mph 21.9 mph N/A   Clear
4:53 AM 79.0 °F 37.0 °F 22% 29.66 in 10.0 mi SE 12.7 mph - N/A   Clear
5:53 AM 77.0 °F 37.9 °F 24% 29.68 in 10.0 mi SSE 13.8 mph 23.0 mph N/A   Clear
6:53 AM 73.0 °F 37.9 °F 28% 29.70 in 10.0 mi Calm Calm - N/A   Clear
7:53 AM 79.0 °F 39.0 °F 24% 29.72 in 10.0 mi Calm Calm - N/A   Clear
8:53 AM 82.9 °F 39.9 °F 22% 29.73 in 10.0 mi SSE 10.4 mph - N/A   Clear
9:53 AM 84.0 °F 39.9 °F 21% 29.73 in 10.0 mi SSE 11.5 mph - N/A   Clear
10:53 AM 88.0 °F 39.0 °F 18% 29.73 in 10.0 mi SE 10.4 mph 17.3 mph N/A   Clear
11:53 AM 91.0 °F 33.1 °F 13% 29.71 in 10.0 mi WSW 11.5 mph 21.9 mph N/A   Clear
12:53 PM 90.0 °F 30.9 °F 12% 29.70 in 10.0 mi Calm Calm - N/A   Clear
1:53 PM 91.9 °F 28.0 °F 10% 29.67 in 10.0 mi West 10.4 mph - N/A   Clear
2:53 PM 93.9 °F 21.0 °F 7% 29.65 in 10.0 mi SW 17.3 mph 25.3 mph N/A   Clear
3:53 PM 95.0 °F 16.0 °F 6% 29.62 in 10.0 mi SSW 12.7 mph - N/A   Clear
4:53 PM 93.9 °F 15.1 °F 6% 29.61 in 10.0 mi SW 17.3 mph 27.6 mph N/A   Clear
5:53 PM 93.0 °F 15.1 °F 6% 29.61 in 10.0 mi SW 13.8 mph - N/A   Clear
6:53 PM 91.0 °F 17.1 °F 7% 29.63 in 10.0 mi SSW 10.4 mph - N/A   Clear
7:53 PM 89.1 °F 16.0 °F 7% 29.62 in 10.0 mi SW 8.1 mph - N/A   Clear
8:53 PM 82.0 °F 17.1 °F 9% 29.63 in 10.0 mi South 5.8 mph - N/A   Clear
9:53 PM 80.1 °F 17.1 °F 9% 29.64 in 10.0 mi SSW 9.2 mph - N/A   Clear
10:53 PM 80.1 °F 17.1 °F 9% 29.63 in 10.0 mi SSW 11.5 mph - N/A   Clear
11:53 PM 82.0 °F 16.0 °F 8% 29.63 in 10.0 mi ESE 5.8 mph - N/A   Clear